Hourly Data Report for September 13, 2017

All times are specified in Local Standard Time (LST). Add 1 hour to adjust for Daylight Saving Time where and when it is observed.

OTTAWA INTL A
ONTARIO

45°19'00.000" N
75°40'00.000" W
114.90 m
6106001
71628
YOW

Download Data

Hourly Data (September 2017)
Hourly Data Report for September 13, 2017
Temp Definition
°C
Dew Point Temp Definition
°C
Rel Hum Definition
%
Wind Dir Definition
10's deg

Wind Spd Definition
km/h
Visibility Definition
km
Stn Press Definition
kPa
Hmdx Definition


Wind Chill Definition


Weather Definition


TIME
00:00 Legend Double Dagger 15.0 13.5 91 29 5 24.1 99.79     LegendNANA
01:00 Legend Double Dagger 14.1 12.4 90 20 12 24.1 99.79     Clear
02:00 Legend Double Dagger 12.8 12.0 95 21 10 24.1 99.78     LegendNANA
03:00 Legend Double Dagger 12.6 12.2 97 19 7 24.1 99.79     LegendNANA
04:00 Legend Double Dagger 12.1 11.7 97 21 6 24.1 99.82     Clear
05:00 Legend Double Dagger 11.7 11.3 98 26 3 24.1 99.83     LegendNANA
06:00 Legend Double Dagger 10.9 10.6 98 24 4 24.1 99.86     LegendNANA
07:00 Legend Double Dagger 13.3 12.6 96 19 9 24.1 99.90     Clear
08:00 Legend Double Dagger 16.3 14.2 88 20 7 24.1 99.87     LegendNANA
09:00 Legend Double Dagger 19.0 14.8 76 23 7 24.1 99.88     LegendNANA
10:00 Legend Double Dagger 21.3 15.1 67 23 6 24.1 99.81 25   Clear
11:00 Legend Double Dagger 23.6 16.1 62 17 12 24.1 99.73 28   LegendNANA
12:00 Legend Double Dagger 24.1 16.0 60 23 9 24.1 99.66 29   LegendNANA
13:00 Legend Double Dagger 26.2 15.7 52 25 19 24.1 99.59 31   Mainly Clear
14:00 Legend Double Dagger 26.3 15.0 49 23 12 24.1 99.53 30   LegendNANA
15:00 Legend Double Dagger 26.5 15.8 51 23 16 24.1 99.48 31   LegendNANA
16:00 Legend Double Dagger 25.5 16.5 57 19 11 24.1 99.46 30   Mostly Cloudy
17:00 Legend Double Dagger 23.7 15.8 61 20 13 24.1 99.46 28   LegendNANA
18:00 Legend Double Dagger 22.0 16.1 69 18 7 24.1 99.49 27   LegendNANA
19:00 Legend Double Dagger 20.6 16.0 75 20 8 24.1 99.52 25   Mostly Cloudy
20:00 Legend Double Dagger 19.5 14.8 74 19 5 24.1 99.54     LegendNANA
21:00 Legend Double Dagger 17.6 14.8 83 21 6 24.1 99.52     LegendNANA
22:00 Legend Double Dagger 16.6 14.2 86 20 5 24.1 99.55     Mainly Clear
23:00 Legend Double Dagger 15.0 13.8 92 20 7 24.1 99.53     LegendNANA

Notes on Data Quality.

Legend

  • E = Estimated
  • M = Missing
  • NA = Not Available
  • ‡ = Partner data that is not subject to review by the National Climate Archives
Date modified: